[[{"header":{"parameterUnit":"m.s-1","parameterCategory":1,"la1":30.2991,"la2":30.254,"lo1":-89.0895,"lo2":-89.0444,"dy":0.0017,"dx":0.0017,"nx":28,"ny":28,"refTime":"2024-08-04T03:00:00:Z","depth":0,"parameterNumber":2,"parameterNumberName":"U-component_of_WINDS"},"data":[0,0,0,0,0,0,0,0,0,0,0,0,0,0,0,0,0,0,0,0,0,0,0,0,0,0,0,0,0,0,0,0,0,0,0,0,0,0,0,0,0,0,0,0,0,0,0,0,0,0,0,0,0,0,0,0,0,0,-3.7168,-3.7171,0,-3.7482,-3.7485,-3.7489,-3.7603,-3.7602,-3.7601,-3.76,-3.7913,-3.7923,-3.7932,0,0,0,0,0,0,0,0,0,0,0,0,0,-3.6661,-3.667,-3.7167,-3.7171,-3.7175,-3.7481,-3.7485,-3.749,-3.7603,-3.7602,-3.76,-3.7599,-3.791,-3.7921,-3.7933,0,0,0,0,0,0,0,0,0,0,0,0,0,-3.6918,-3.6672,-3.7167,-3.7269,-3.7281,-3.748,-3.7485,-3.7491,-3.7603,-3.7601,-3.76,-3.7598,-3.7907,-3.792,-3.7934,-3.8052,0,0,-3.7977,-3.7983,0,0,0,0,0,0,0,0,-3.6903,-3.6937,-3.725,-3.7262,-3.7276,-3.7502,-3.7422,-3.7679,-3.7603,-3.7481,-3.7599,-3.7598,-3.7777,-3.7802,-3.7864,-3.8067,-3.808,-3.7978,-3.7987,-3.7993,-3.7997,0,0,0,0,0,0,0,-3.6885,-3.6924,-3.7291,-3.7254,-3.727,-3.7297,-3.7332,-3.7471,-3.7634,-3.7491,-3.75,-3.7536,-3.7784,-3.785,-3.7872,-3.8085,-3.7978,-3.799,-3.7999,-3.8004,-3.8402,-3.8404,0,0,0,0,0,0,-3.6851,-3.6908,-3.7282,-3.7301,-3.7082,-3.7308,-3.7347,-3.7431,-3.7633,-3.7662,-3.7537,-3.754,-3.7827,-3.7856,-3.7883,-3.8036,-3.7993,-3.8006,-3.8014,-3.84,-3.8403,-3.8405,0,0,0,0,0,0,-3.684,-3.6884,-3.7269,-3.7107,-3.7158,-3.7318,-3.7411,-3.7438,-3.7504,-3.7668,-3.7696,-3.7575,-3.7827,-3.7864,-3.801,-3.8048,-3.8012,-3.8025,-3.8398,-3.8401,-3.8404,-3.834,0,0,0,0,0,0,-3.6825,-3.6879,-3.6926,-3.7108,-3.7167,-3.7392,-3.7414,-3.7445,-3.7529,-3.7536,-3.7711,-3.7738,-3.7828,-3.7989,-3.8024,-3.8067,-3.8036,-3.8395,-3.8399,-3.8403,-3.834,-3.8341,-3.8342,0,0,0,0,0,-3.6807,-3.6894,-3.6928,-3.6973,-3.723,-3.7394,-3.7427,-3.7532,-3.7531,-3.758,-3.7685,-3.7733,-3.8039,-3.8003,-3.8044,-3.8091,-3.8393,-3.8398,-3.8403,-3.8339,-3.8341,-3.8342,0,0,0,0,0,0,-3.671,-3.692,-3.696,-3.7109,-3.7233,-3.7413,-3.7477,-3.753,-3.7654,-3.7655,-3.7777,-3.7816,-3.7953,-3.8037,-3.7993,-3.8217,-3.8219,-3.8232,-3.8157,-3.8159,-3.8161,-3.8136,-3.8047,0,0,0,0,0,-3.6707,-3.6824,-3.7,-3.7115,-3.7176,-3.7315,-3.7391,-3.7461,-3.7593,-3.7645,-3.7761,-3.7886,-3.8011,-3.809,-3.8214,-3.8353,-3.8393,-3.8406,-3.8407,-3.8407,-3.8417,-3.8497,-3.8505,-3.8421,-3.8421,-3.8421,0,0,-3.67,-3.6829,-3.6895,-3.7099,-3.7203,-3.7321,-3.7358,-3.7481,-3.7569,-3.7663,-3.781,-3.7899,-3.8047,-3.819,-3.8259,-3.8265,-3.8449,-3.8414,-3.8413,-3.8422,-3.8503,-3.8511,-3.8518,-3.8425,-3.8424,-3.8423,0,0,-3.6747,-3.6857,-3.6965,-3.707,-3.7229,-3.7322,-3.7347,-3.7521,-3.7585,-3.7734,-3.7808,-3.7913,-3.8125,-3.8228,-3.8307,-3.8397,-3.8445,-3.8434,-3.8439,-3.8516,-3.8523,-3.8529,-3.856,-3.857,-3.8443,-3.8443,-3.8443,0,-3.6718,-3.69,-3.7013,-3.7133,-3.722,-3.7315,-3.7424,-3.752,-3.7709,-3.7766,-3.7771,-3.8041,-3.8146,-3.8316,-3.8338,-3.8399,-3.8432,-3.8413,-3.8513,-3.8521,-3.8528,-3.8559,-3.8571,-3.844,-3.844,-3.8441,-3.8441,0,-3.6856,-3.6981,-3.7049,-3.7233,-3.7328,-3.7442,-3.7571,-3.7654,-3.7716,-3.7808,-3.7959,-3.809,-3.8242,-3.8288,-3.8349,-3.8467,-3.8465,-3.849,-3.8494,-3.8532,-3.8563,-3.8576,-3.8437,-3.8437,-3.8438,-3.8439,0,0,-3.6848,-3.7096,-3.7119,-3.7204,-3.7388,-3.7486,-3.7604,-3.7756,-3.7824,-3.7953,-3.8054,-3.8233,-3.8258,-3.8348,-3.8421,-3.8489,-3.8552,-3.8506,-3.8511,-3.8509,-3.8689,-3.8669,-3.8681,-3.8586,-3.8589,-3.8591,-3.8677,0,-3.6919,-3.7137,-3.7243,-3.7413,-3.753,-3.7623,-3.7726,-3.7849,-3.7938,-3.8049,-3.8148,-3.8273,-3.8296,-3.8352,-3.8423,-3.8529,-3.8589,-3.8524,-3.8679,-3.8683,-3.8638,-3.8698,-3.8676,-3.8751,-3.869,-3.8692,-3.8694,0,-3.703,-3.7161,-3.7343,-3.7515,-3.7568,-3.7659,-3.7807,-3.7913,-3.8054,-3.8115,-3.8218,-3.829,-3.8417,-3.8413,-3.8589,-3.8542,-3.8613,-3.8674,-3.868,-3.8697,-3.8689,-3.8715,-3.8777,-3.8788,-3.8714,-3.8713,-3.8711,0,-3.7006,-3.7227,-3.7366,-3.7436,-3.7639,-3.7701,-3.7788,-3.7929,-3.8014,-3.8143,-3.82,-3.8341,-3.8418,-3.8525,-3.8633,-3.8621,-3.8798,-3.8804,-3.8851,-3.8848,-3.8882,-3.8878,-3.8955,-3.8929,-3.8929,-3.8929,-3.8928,0,-3.7073,-3.718,-3.7358,-3.7442,-3.7566,-3.7688,-3.7806,-3.79,-3.8024,-3.8128,-3.8217,-3.8311,-3.845,-3.8562,-3.8647,-3.878,-3.8814,-3.8865,-3.8886,-3.8857,-3.885,-3.8903,-3.89,-3.8932,-3.8931,-3.8931,-3.893,0,-3.7065,-3.7189,-3.7345,-3.7527,-3.7575,-3.7657,-3.7812,-3.7897,-3.7993,-3.8123,-3.816,-3.8309,-3.8446,-3.8566,-3.8746,-3.8803,-3.8939,-3.8965,-3.8892,-3.8903,-3.8943,-3.8937,-3.9055,-3.9077,-3.9036,-3.9037,-3.9037,0,-3.7099,-3.7185,-3.7376,-3.7453,-3.754,-3.7662,-3.7751,-3.7874,-3.7962,-3.8131,-3.8195,-3.834,-3.8461,-3.8675,-3.8798,-3.8937,-3.8967,-3.8999,-3.8988,-3.8956,-3.8966,-3.8959,-3.8968,-3.8997,-3.8997,-3.8997,-3.8997,0,-3.7146,-3.7203,-3.7328,-3.7475,-3.7579,-3.77,-3.7823,-3.788,-3.8027,-3.8121,-3.8264,-3.8358,-3.8544,-3.8685,-3.8838,-3.8927,-3.8986,-3.9,-3.9019,-3.8988,-3.8942,-3.8967,-3.889,-3.8996,-3.8996,-3.8996,-3.8997,-3.8997,-3.716,-3.7241,-3.7389,-3.7525,-3.7632,-3.7745,-3.7835,-3.7943,-3.8065,-3.8227,-3.8293,-3.8438,-3.8578,-3.879,-3.8879,-3.8993,-3.9003,-3.9029,-3.9035,-3.904,-3.9034,-3.8925,-3.9021,-3.9022,-3.9022,-3.9022,-3.9022,0,-3.7211,-3.7311,-3.7436,-3.7607,-3.7714,-3.7765,-3.7904,-3.799,-3.8118,-3.8245,-3.8364,-3.8528,-3.8667,-3.8802,-3.8947,-3.9013,-3.9044,-3.9047,-3.9042,-3.9062,-3.9018,-3.8987,-3.9019,-3.9019,-3.9019,-3.9019,-3.9019,-3.9019,-3.725,-3.7389,-3.7464,-3.7658,-3.7758,-3.7902,-3.7978,-3.8083,-3.8186,-3.8366,-3.8482,-3.8571,-3.8702,-3.8858,-3.8987,-3.9023,-3.9072,-3.9067,-3.911,-3.9066,-3.9065,-3.9063,-3.9035,-3.9077,-3.9077,-3.9145,-3.9146,-3.9146]},{"header":{"parameterUnit":"m.s-1","parameterCategory":1,"la1":30.2991,"la2":30.254,"lo1":-89.0895,"lo2":-89.0444,"dy":0.0017,"dx":0.0017,"nx":28,"ny":28,"refTime":"2024-08-04T03:00:00:Z","depth":0,"parameterNumber":3,"parameterNumberName":"V-component_of_WINDS"},"data":[0,0,0,0,0,0,0,0,0,0,0,0,0,0,0,0,0,0,0,0,0,0,0,0,0,0,0,0,0,0,0,0,0,0,0,0,0,0,0,0,0,0,0,0,0,0,0,0,0,0,0,0,0,0,0,0,0,0,2.9326,2.9325,0,2.9247,2.9247,2.9246,2.9181,2.918,2.918,2.9179,2.9094,2.9092,2.909,0,0,0,0,0,0,0,0,0,0,0,0,0,2.9414,2.9413,2.9326,2.9325,2.9324,2.9248,2.9246,2.9245,2.9181,2.918,2.918,2.9179,2.9094,2.9092,2.909,0,0,0,0,0,0,0,0,0,0,0,0,0,2.936,2.9412,2.9326,2.9283,2.9278,2.9248,2.9246,2.9245,2.9181,2.918,2.9179,2.9178,2.9095,2.9093,2.909,2.9095,0,0,2.9082,2.9081,0,0,0,0,0,0,0,0,2.9363,2.9356,2.929,2.9286,2.9281,2.9223,2.9246,2.9194,2.9182,2.9218,2.9179,2.9178,2.9137,2.9131,2.9119,2.9091,2.9087,2.9082,2.9081,2.908,2.9079,0,0,0,0,0,0,0,2.9367,2.9359,2.9295,2.9289,2.9283,2.9265,2.9256,2.9236,2.9184,2.9215,2.921,2.9202,2.9134,2.9121,2.9116,2.9086,2.9082,2.908,2.9079,2.9078,2.9053,2.9053,0,0,0,0,0,0,2.9378,2.9363,2.9297,2.9292,2.932,2.9265,2.9255,2.9242,2.9184,2.9174,2.9203,2.9199,2.9126,2.9119,2.9113,2.9111,2.908,2.9077,2.9076,2.9052,2.9053,2.9054,0,0,0,0,0,0,2.938,2.9373,2.93,2.9326,2.9316,2.9264,2.9251,2.9241,2.9228,2.9175,2.9165,2.9199,2.9125,2.9116,2.9099,2.9108,2.9076,2.9074,2.9051,2.9052,2.9053,2.9111,0,0,0,0,0,0,2.9383,2.9374,2.9377,2.9327,2.9315,2.929,2.9252,2.9241,2.9225,2.9219,2.9169,2.916,2.9123,2.9103,2.9097,2.9104,2.9072,2.905,2.9051,2.9053,2.9108,2.9114,2.9119,0,0,0,0,0,2.9386,2.9396,2.9377,2.937,2.9318,2.9291,2.9284,2.9243,2.9226,2.9227,2.9192,2.9161,2.9108,2.9102,2.9094,2.91,2.9049,2.9051,2.9053,2.9105,2.9112,2.9119,0,0,0,0,0,0,2.9447,2.9389,2.9367,2.9362,2.9332,2.928,2.9281,2.9253,2.9226,2.9222,2.9171,2.916,2.9148,2.9122,2.9117,2.9099,2.9074,2.9075,2.9117,2.9123,2.9129,2.9134,2.907,0,0,0,0,0,2.946,2.9445,2.9394,2.9394,2.938,2.9333,2.932,2.9291,2.9258,2.9244,2.9209,2.9176,2.9151,2.9136,2.911,2.9104,2.909,2.9104,2.9109,2.9114,2.9115,2.9105,2.911,2.906,2.906,2.906,0,0,2.9486,2.9452,2.9446,2.9405,2.9379,2.9362,2.9323,2.9308,2.9294,2.9241,2.9223,2.9195,2.9154,2.9142,2.9134,2.912,2.9125,2.9117,2.9121,2.9118,2.9108,2.9112,2.9117,2.9061,2.9061,2.9061,0,0,2.9524,2.9499,2.9494,2.9469,2.9429,2.9398,2.9397,2.9349,2.9329,2.931,2.9269,2.925,2.921,2.9182,2.9162,2.9187,2.9156,2.918,2.9209,2.92,2.9204,2.9207,2.9213,2.9216,2.9181,2.9181,2.9181,0,2.9561,2.9537,2.9495,2.9482,2.9463,2.9416,2.941,2.9386,2.934,2.9327,2.9312,2.9259,2.9228,2.9206,2.9212,2.9199,2.9193,2.9186,2.9207,2.921,2.9212,2.9217,2.922,2.9184,2.9184,2.9184,2.9183,0,2.9582,2.9566,2.9566,2.9524,2.9506,2.9496,2.945,2.9437,2.9409,2.9378,2.9356,2.9318,2.9282,2.9275,2.9248,2.9248,2.924,2.9217,2.9191,2.9221,2.9224,2.9226,2.9189,2.9187,2.9187,2.9186,0,0,2.9657,2.9591,2.9592,2.9571,2.9523,2.9508,2.9494,2.9461,2.9449,2.9418,2.9403,2.9369,2.9346,2.9324,2.9292,2.9285,2.9303,2.9262,2.926,2.9269,2.9297,2.9314,2.9317,2.9283,2.9283,2.9283,2.93,0,2.9686,2.9661,2.9622,2.9609,2.9591,2.9545,2.9533,2.9501,2.9471,2.9449,2.9415,2.939,2.9364,2.935,2.9341,2.9303,2.9308,2.9302,2.9265,2.9264,2.9276,2.9319,2.9338,2.9355,2.9301,2.9301,2.9302,0,2.9717,2.9689,2.9675,2.9626,2.9617,2.9607,2.9572,2.9553,2.9514,2.9492,2.9467,2.9432,2.9412,2.9389,2.9358,2.9354,2.9336,2.9315,2.9315,2.9309,2.9284,2.9312,2.936,2.9362,2.9304,2.9304,2.9304,0,2.9769,2.9729,2.9714,2.9698,2.9642,2.9635,2.9611,2.9571,2.9553,2.9521,2.9508,2.9474,2.9454,2.9427,2.9383,2.937,2.9355,2.9329,2.9333,2.9334,2.9331,2.9332,2.9375,2.9323,2.9323,2.9323,2.9323,0,2.9805,2.9797,2.9737,2.9728,2.9716,2.9671,2.966,2.9631,2.9596,2.9578,2.9535,2.9518,2.9462,2.9438,2.9403,2.938,2.9372,2.9352,2.9342,2.9355,2.9357,2.9341,2.9338,2.9324,2.9324,2.9324,2.9324,0,2.9861,2.9821,2.9802,2.975,2.9737,2.973,2.9685,2.9672,2.964,2.9617,2.9609,2.9556,2.9525,2.9479,2.9433,2.9409,2.9391,2.9377,2.9405,2.9399,2.9405,2.9405,2.9438,2.9439,2.939,2.939,2.9391,0,2.9885,2.9878,2.9826,2.9812,2.979,2.9768,2.9749,2.9702,2.9684,2.9638,2.963,2.9596,2.9566,2.9517,2.9473,2.9437,2.942,2.9434,2.9414,2.9426,2.9417,2.9417,2.9415,2.9438,2.9439,2.944,2.944,0,2.9932,2.9912,2.9888,2.9856,2.9835,2.9807,2.9776,2.9767,2.9713,2.9693,2.9662,2.9639,2.9592,2.9557,2.9515,2.9486,2.9453,2.9447,2.9446,2.9458,2.9473,2.9462,2.9416,2.9446,2.9446,2.9445,2.9445,2.9445,2.9971,2.9962,2.9923,2.9897,2.9869,2.9842,2.9827,2.9793,2.9767,2.9727,2.97,2.9669,2.9626,2.9566,2.9539,2.9511,2.9497,2.9496,2.9496,2.9496,2.9499,2.9479,2.9503,2.9503,2.9503,2.9503,2.9502,0,3.0013,2.9986,2.9962,2.9922,2.99,2.9874,2.9838,2.982,2.9795,2.976,2.9731,2.9693,2.9658,2.9611,2.9572,2.9559,2.9542,2.955,2.9549,2.9542,2.9515,2.9519,2.9564,2.9564,2.9564,2.9564,2.9564,2.9564,3.0032,3.0014,2.999,2.9957,2.9929,2.9901,2.9882,2.9855,2.9826,2.9787,2.9758,2.9729,2.9687,2.9644,2.961,2.9596,2.9583,2.9594,2.9576,2.9551,2.9545,2.954,2.9543,2.9592,2.9592,2.9606,2.9606,2.9606]}]]